Time,TemperatureF,DewpointF,PressureIn,WindDirection,WindDirectionDegrees,WindSpeedMPH,WindSpeedGustMPH,Humidity,HourlyPrecipIn,Conditions,Clouds,dailyrainin,SoftwareType,DateUTC
2013-04-29 00:00:00,59.7,41.6,17.72,NNW,331,0.0,0.0,51,0.00,,---,0.00,VWS V14.01,2013-04-29 05:00:00,
2013-04-29 00:10:00,59.5,41.4,17.72,NW,311,0.0,0.0,51,0.00,,---,0.00,VWS V14.01,2013-04-29 05:10:00,
2013-04-29 00:20:00,59.2,41.1,17.72,NNW,328,0.0,0.0,51,0.00,,---,0.00,VWS V14.01,2013-04-29 05:20:00,
2013-04-29 00:25:00,59.2,41.1,17.72,NNW,328,0.0,0.0,51,0.00,,---,0.00,VWS V14.01,2013-04-29 05:25:00,
2013-04-29 00:35:00,58.8,40.8,17.72,NNE,13,0.0,0.0,51,0.00,,---,0.00,VWS V14.01,2013-04-29 05:35:00,
2013-04-29 00:45:00,58.5,40.9,17.72,WNW,292,0.0,0.0,52,0.00,,---,0.00,VWS V14.01,2013-04-29 05:45:00,
2013-04-29 00:50:00,58.3,40.8,17.72,North,353,3.1,3.1,52,0.00,,---,0.00,VWS V14.01,2013-04-29 05:50:00,
2013-04-29 00:55:00,58.1,40.6,17.72,West,279,0.0,0.0,52,0.00,,---,0.00,VWS V14.01,2013-04-29 05:55:00,
2013-04-29 01:00:00,57.9,40.9,17.72,NNW,332,0.0,0.0,53,0.00,,---,0.00,VWS V14.01,2013-04-29 06:00:00,
2013-04-29 01:10:00,57.6,40.6,17.72,NNW,334,3.1,3.1,53,0.00,,---,0.00,VWS V14.01,2013-04-29 06:10:00,
2013-04-29 01:15:00,57.6,41.1,17.72,NW,314,0.0,0.0,54,0.00,,---,0.00,VWS V14.01,2013-04-29 06:15:00,
2013-04-29 01:20:00,57.4,40.9,17.72,NW,308,0.0,0.0,54,0.00,,---,0.00,VWS V14.01,2013-04-29 06:20:00,
2013-04-29 01:30:00,57.2,41.2,17.72,WNW,289,2.2,2.2,55,0.00,,---,0.00,VWS V14.01,2013-04-29 06:30:00,
2013-04-29 01:35:00,57.2,41.2,17.72,North,357,0.0,0.0,55,0.00,,---,0.00,VWS V14.01,2013-04-29 06:35:00,
2013-04-29 01:40:00,57.0,41.5,17.72,NNW,338,0.0,0.0,56,0.00,,---,0.00,VWS V14.01,2013-04-29 06:40:00,
2013-04-29 01:50:00,56.8,41.3,17.72,NW,306,0.0,0.0,56,0.00,,---,0.00,VWS V14.01,2013-04-29 06:50:00,
2013-04-29 01:55:00,56.7,41.2,17.72,WNW,287,0.0,0.0,56,0.00,,---,0.00,VWS V14.01,2013-04-29 06:55:00,
2013-04-29 02:00:00,56.7,41.2,17.72,NW,321,0.0,0.0,56,0.00,,---,0.00,VWS V14.01,2013-04-29 07:00:00,
2013-04-29 02:05:00,56.5,41.5,17.72,WNW,296,2.7,2.7,57,0.00,,---,0.00,VWS V14.01,2013-04-29 07:05:00,
2013-04-29 02:10:00,56.3,41.3,17.72,NW,315,0.0,0.0,57,0.00,,---,0.00,VWS V14.01,2013-04-29 07:10:00,
2013-04-29 02:20:00,56.1,41.1,17.72,NNW,345,0.0,0.0,57,0.00,,---,0.00,VWS V14.01,2013-04-29 07:20:00,
2013-04-29 02:30:00,55.9,40.9,17.72,NNW,333,2.7,2.7,57,0.00,,---,0.00,VWS V14.01,2013-04-29 07:30:00,
2013-04-29 02:40:00,55.6,40.6,17.72,NW,311,0.0,0.0,57,0.00,,---,0.00,VWS V14.01,2013-04-29 07:40:00,
2013-04-29 02:45:00,55.6,40.2,17.72,NW,317,0.0,0.0,56,0.00,,---,0.00,VWS V14.01,2013-04-29 07:45:00,
2013-04-29 02:50:00,55.2,40.3,17.72,NNW,327,0.0,0.0,57,0.00,,---,0.00,VWS V14.01,2013-04-29 07:50:00,
2013-04-29 03:00:00,54.9,39.9,17.72,NNW,333,0.0,0.0,57,0.00,,---,0.00,VWS V14.01,2013-04-29 08:00:00,
2013-04-29 03:05:00,54.5,39.6,17.72,NNW,335,2.2,2.2,57,0.00,,---,0.00,VWS V14.01,2013-04-29 08:05:00,
2013-04-29 03:15:00,54.1,39.3,17.72,North,349,0.0,0.0,57,0.00,,---,0.00,VWS V14.01,2013-04-29 08:15:00,
2013-04-29 03:25:00,53.8,38.9,17.72,North,349,0.0,0.0,57,0.00,,---,0.00,VWS V14.01,2013-04-29 08:25:00,
2013-04-29 03:30:00,53.6,38.8,17.72,North,349,0.0,0.0,57,0.00,,---,0.00,VWS V14.01,2013-04-29 08:30:00,
2013-04-29 03:40:00,53.1,38.7,17.72,NNW,348,0.0,0.0,58,0.00,,---,0.00,VWS V14.01,2013-04-29 08:40:00,
2013-04-29 03:50:00,52.9,38.5,17.72,NNW,348,0.0,0.0,58,0.00,,---,0.00,VWS V14.01,2013-04-29 08:50:00,
2013-04-29 04:00:00,52.3,38.0,17.72,North,353,0.0,0.0,58,0.00,,---,0.00,VWS V14.01,2013-04-29 09:00:00,
2013-04-29 04:05:00,52.2,37.8,17.72,North,353,0.0,0.0,58,0.00,,---,0.00,VWS V14.01,2013-04-29 09:05:00,
2013-04-29 04:15:00,52.0,37.7,17.72,WNW,302,0.0,0.0,58,0.00,,---,0.00,VWS V14.01,2013-04-29 09:15:00,
2013-04-29 04:20:00,51.6,37.8,17.72,WNW,302,0.0,0.0,59,0.00,,---,0.00,VWS V14.01,2013-04-29 09:20:00,
2013-04-29 04:30:00,51.3,37.4,17.72,WNW,302,0.0,0.0,59,0.00,,---,0.00,VWS V14.01,2013-04-29 09:30:00,
2013-04-29 04:40:00,50.9,37.1,17.72,WNW,299,0.0,0.0,59,0.00,,---,0.00,VWS V14.01,2013-04-29 09:40:00,
2013-04-29 04:50:00,50.5,37.2,17.72,WNW,302,0.0,0.0,60,0.00,,---,0.00,VWS V14.01,2013-04-29 09:50:00,
2013-04-29 05:00:00,50.2,37.3,17.72,NNW,340,0.0,0.0,61,0.00,,---,0.00,VWS V14.01,2013-04-29 10:00:00,
2013-04-29 05:05:00,50.0,37.1,17.72,North,3,3.6,3.6,61,0.00,,---,0.00,VWS V14.01,2013-04-29 10:05:00,
2013-04-29 05:10:00,49.8,36.9,17.72,NNW,343,0.0,0.0,61,0.00,,---,0.00,VWS V14.01,2013-04-29 10:10:00,
2013-04-29 05:20:00,49.3,36.8,17.72,NW,319,0.0,0.0,62,0.00,,---,0.00,VWS V14.01,2013-04-29 10:20:00,
2013-04-29 05:25:00,49.1,36.7,17.72,NW,319,0.0,0.0,62,0.00,,---,0.00,VWS V14.01,2013-04-29 10:25:00,
2013-04-29 05:35:00,48.9,36.5,17.72,NNW,327,0.0,0.0,62,0.00,,---,0.00,VWS V14.01,2013-04-29 10:35:00,
2013-04-29 05:45:00,48.7,37.1,17.72,WNW,286,0.0,0.0,64,0.00,,---,0.00,VWS V14.01,2013-04-29 10:45:00,
2013-04-29 05:55:00,48.7,36.7,17.72,WNW,286,0.0,0.0,63,0.00,,---,0.00,VWS V14.01,2013-04-29 10:55:00,
2013-04-29 06:00:00,48.7,36.3,17.72,WNW,286,0.0,0.0,62,0.00,,---,0.00,VWS V14.01,2013-04-29 11:00:00,
2013-04-29 06:10:00,48.2,35.8,17.72,WNW,286,0.0,0.0,62,0.00,,---,0.00,VWS V14.01,2013-04-29 11:10:00,
2013-04-29 06:15:00,48.0,36.0,17.72,WNW,286,0.0,0.0,63,0.00,,---,0.00,VWS V14.01,2013-04-29 11:15:00,
2013-04-29 06:20:00,47.8,35.9,17.72,WNW,286,0.0,0.0,63,0.00,,---,0.00,VWS V14.01,2013-04-29 11:20:00,
2013-04-29 06:30:00,47.8,37.0,17.72,WNW,286,0.0,0.0,66,0.00,,---,0.00,VWS V14.01,2013-04-29 11:30:00,
2013-04-29 06:35:00,47.8,37.0,17.72,WNW,286,0.0,0.0,66,0.00,,---,0.00,VWS V14.01,2013-04-29 11:35:00,
2013-04-29 06:40:00,47.8,37.0,17.72,WNW,287,0.0,0.0,66,0.00,,---,0.00,VWS V14.01,2013-04-29 11:40:00,
2013-04-29 06:45:00,47.7,36.5,17.72,WNW,286,0.0,0.0,65,0.00,,---,0.00,VWS V14.01,2013-04-29 11:45:00,
2013-04-29 06:55:00,47.3,35.8,17.72,WNW,286,0.0,0.0,64,0.00,,---,0.00,VWS V14.01,2013-04-29 11:55:00,
2013-04-29 07:05:00,47.3,35.8,17.72,NW,306,0.0,0.0,64,0.00,,---,0.00,VWS V14.01,2013-04-29 12:05:00,
2013-04-29 07:10:00,47.3,35.8,17.72,NW,306,0.0,0.0,64,0.00,,---,0.00,VWS V14.01,2013-04-29 12:10:00,
2013-04-29 07:20:00,47.3,35.0,17.72,NW,306,0.0,0.0,62,0.00,,---,0.00,VWS V14.01,2013-04-29 12:20:00,
2013-04-29 07:30:00,47.5,33.9,17.72,NW,306,0.0,0.0,59,0.00,,---,0.00,VWS V14.01,2013-04-29 12:30:00,
2013-04-29 07:40:00,47.7,33.2,17.72,NW,320,0.0,0.0,57,0.00,,---,0.00,VWS V14.01,2013-04-29 12:40:00,
2013-04-29 07:45:00,47.8,33.4,17.72,WNW,288,0.0,0.0,57,0.00,,---,0.00,VWS V14.01,2013-04-29 12:45:00,
2013-04-29 07:55:00,48.4,32.5,17.72,West,263,2.7,2.7,54,0.00,,---,0.00,VWS V14.01,2013-04-29 12:55:00,
2013-04-29 08:00:00,48.7,31.9,17.72,SW,214,0.0,0.0,52,0.00,,---,0.00,VWS V14.01,2013-04-29 13:00:00,
2013-04-29 08:05:00,48.9,31.1,17.72,WNW,292,0.0,0.0,50,0.00,,---,0.00,VWS V14.01,2013-04-29 13:05:00,
2013-04-29 08:15:00,49.6,31.8,17.72,WNW,302,0.0,0.0,50,0.00,,---,0.00,VWS V14.01,2013-04-29 13:15:00,
2013-04-29 08:20:00,50.0,32.1,17.72,SW,227,0.0,0.0,50,0.00,,---,0.00,VWS V14.01,2013-04-29 13:20:00,
2013-04-29 08:30:00,50.7,31.8,17.72,SW,232,0.0,0.0,48,0.00,,---,0.00,VWS V14.01,2013-04-29 13:30:00,
2013-04-29 08:40:00,51.4,31.9,17.72,NE,34,0.0,0.0,47,0.00,,---,0.00,VWS V14.01,2013-04-29 13:40:00,
2013-04-29 08:50:00,52.2,32.6,17.72,SSE,167,0.0,0.0,47,0.00,,---,0.00,VWS V14.01,2013-04-29 13:50:00,
2013-04-29 08:55:00,52.3,32.2,17.72,ESE,103,3.6,3.6,46,0.00,,---,0.00,VWS V14.01,2013-04-29 13:55:00,
2013-04-29 09:05:00,53.1,32.3,17.72,SSE,163,2.2,2.2,45,0.00,,---,0.00,VWS V14.01,2013-04-29 14:05:00,
2013-04-29 09:15:00,53.8,31.8,17.72,NNE,13,2.2,2.2,43,0.00,,---,0.00,VWS V14.01,2013-04-29 14:15:00,
2013-04-29 09:25:00,54.7,32.1,17.72,ESE,117,3.1,3.1,42,0.00,,---,0.00,VWS V14.01,2013-04-29 14:25:00,
2013-04-29 09:30:00,55.0,31.8,17.72,WSW,241,2.7,2.7,41,0.00,,---,0.00,VWS V14.01,2013-04-29 14:30:00,
2013-04-29 09:40:00,55.9,31.4,17.72,West,267,2.7,2.7,39,0.00,,---,0.00,VWS V14.01,2013-04-29 14:40:00,
2013-04-29 09:50:00,56.5,31.8,17.72,ENE,78,3.1,3.1,39,0.00,,---,0.00,VWS V14.01,2013-04-29 14:50:00,
2013-04-29 10:00:00,57.4,32.0,17.72,WNW,287,0.0,0.0,38,0.00,,---,0.00,VWS V14.01,2013-04-29 15:00:00,
2013-04-29 10:05:00,57.7,31.7,17.72,NE,40,4.0,4.0,37,0.00,,---,0.00,VWS V14.01,2013-04-29 15:05:00,
2013-04-29 10:15:00,58.5,32.3,17.72,ENE,58,3.1,3.1,37,0.00,,---,0.00,VWS V14.01,2013-04-29 15:15:00,
2013-04-29 10:25:00,59.7,32.7,17.72,SE,142,4.0,4.0,36,0.00,,---,0.00,VWS V14.01,2013-04-29 15:25:00,
2013-04-29 10:35:00,61.0,33.2,17.72,SE,138,5.8,5.8,35,0.00,,---,0.00,VWS V14.01,2013-04-29 15:35:00,
2013-04-29 10:40:00,61.3,32.8,17.72,East,83,3.6,3.6,34,0.00,,---,0.00,VWS V14.01,2013-04-29 15:40:00,
2013-04-29 10:45:00,61.9,33.2,17.72,ESE,114,5.4,5.4,34,0.00,,---,0.00,VWS V14.01,2013-04-29 15:45:00,
2013-04-29 10:50:00,62.6,33.9,17.72,SSE,165,0.0,0.0,34,0.00,,---,0.00,VWS V14.01,2013-04-29 15:50:00,
2013-04-29 11:00:00,63.9,35.0,17.72,ESE,104,3.1,3.1,34,0.00,,---,0.00,VWS V14.01,2013-04-29 16:00:00,
2013-04-29 11:10:00,65.1,35.3,17.72,ESE,122,3.1,3.1,33,0.00,,---,0.00,VWS V14.01,2013-04-29 16:10:00,
2013-04-29 11:15:00,65.8,36.0,17.72,SE,130,4.0,4.0,33,0.00,,---,0.00,VWS V14.01,2013-04-29 16:15:00,
2013-04-29 11:25:00,66.7,36.8,17.72,NW,304,2.7,2.7,33,0.00,,---,0.00,VWS V14.01,2013-04-29 16:25:00,
2013-04-29 11:30:00,67.3,37.2,17.72,SSE,152,5.4,5.4,33,0.00,,---,0.00,VWS V14.01,2013-04-29 16:30:00,
2013-04-29 11:35:00,68.0,37.1,17.72,South,178,2.2,2.2,32,0.00,,---,0.00,VWS V14.01,2013-04-29 16:35:00,
2013-04-29 11:40:00,68.0,35.4,17.72,NW,311,2.2,2.2,30,0.00,,---,0.00,VWS V14.01,2013-04-29 16:40:00,
2013-04-29 11:50:00,68.2,35.6,17.72,NE,42,2.7,2.7,30,0.00,,---,0.00,VWS V14.01,2013-04-29 16:50:00,
2013-04-29 12:00:00,68.5,34.2,17.72,SE,131,5.4,5.4,28,0.00,,---,0.00,VWS V14.01,2013-04-29 17:00:00,
2013-04-29 12:10:00,68.9,34.5,17.72,SSE,159,3.6,3.6,28,0.00,,---,0.00,VWS V14.01,2013-04-29 17:10:00,
2013-04-29 12:15:00,69.1,34.6,17.72,South,191,4.0,4.0,28,0.00,,---,0.00,VWS V14.01,2013-04-29 17:15:00,
2013-04-29 12:20:00,69.3,33.9,17.72,East,99,4.0,4.0,27,0.00,,---,0.00,VWS V14.01,2013-04-29 17:20:00,
2013-04-29 12:30:00,69.4,35.0,17.72,SSE,147,0.0,0.0,28,0.00,,---,0.00,VWS V14.01,2013-04-29 17:30:00,
2013-04-29 12:35:00,69.6,34.2,17.72,NE,44,0.0,0.0,27,0.00,,---,0.00,VWS V14.01,2013-04-29 17:35:00,
2013-04-29 12:45:00,70.3,34.8,17.72,East,84,5.8,5.8,27,0.00,,---,0.00,VWS V14.01,2013-04-29 17:45:00,
2013-04-29 12:55:00,71.1,35.4,17.72,East,85,2.7,2.7,27,0.00,,---,0.00,VWS V14.01,2013-04-29 17:55:00,
2013-04-29 13:00:00,71.6,35.9,17.72,SSE,157,3.6,3.6,27,0.00,,---,0.00,VWS V14.01,2013-04-29 18:00:00,
2013-04-29 13:10:00,72.3,35.5,17.72,ENE,77,6.3,6.3,26,0.00,,---,0.00,VWS V14.01,2013-04-29 18:10:00,
2013-04-29 13:20:00,73.0,35.2,17.72,South,183,5.4,5.4,25,0.00,,---,0.00,VWS V14.01,2013-04-29 18:20:00,
2013-04-29 13:25:00,73.4,35.5,17.72,SE,140,8.3,8.3,25,0.00,,---,0.00,VWS V14.01,2013-04-29 18:25:00,
2013-04-29 13:30:00,73.6,34.6,17.72,SSE,154,2.7,2.7,24,0.00,,---,0.00,VWS V14.01,2013-04-29 18:30:00,
2013-04-29 13:40:00,73.6,35.6,17.72,WSW,250,0.0,0.0,25,0.00,,---,0.00,VWS V14.01,2013-04-29 18:40:00,
2013-04-29 13:45:00,74.3,35.2,17.72,ESE,108,2.7,2.7,24,0.00,,---,0.00,VWS V14.01,2013-04-29 18:45:00,
2013-04-29 13:50:00,75.0,35.8,17.72,SE,143,5.4,5.4,24,0.00,,---,0.00,VWS V14.01,2013-04-29 18:50:00,
2013-04-29 13:55:00,75.4,36.1,17.72,SSW,199,0.0,0.0,24,0.00,,---,0.00,VWS V14.01,2013-04-29 18:55:00,
2013-04-29 14:05:00,75.6,35.2,17.72,East,82,3.6,3.6,23,0.00,,---,0.00,VWS V14.01,2013-04-29 19:05:00,
2013-04-29 14:15:00,75.6,36.3,17.72,East,82,0.0,0.0,24,0.00,,---,0.00,VWS V14.01,2013-04-29 19:15:00,
2013-04-29 14:20:00,75.7,35.3,17.72,SE,143,6.7,6.7,23,0.00,,---,0.00,VWS V14.01,2013-04-29 19:20:00,
2013-04-29 14:30:00,75.7,35.3,17.72,SSE,158,3.1,3.1,23,0.00,,---,0.00,VWS V14.01,2013-04-29 19:30:00,
2013-04-29 14:35:00,75.7,35.3,17.72,NE,54,4.0,4.0,23,0.00,,---,0.00,VWS V14.01,2013-04-29 19:35:00,
2013-04-29 14:40:00,75.6,34.1,17.72,NE,55,4.0,4.0,22,0.00,,---,0.00,VWS V14.01,2013-04-29 19:40:00,
2013-04-29 14:45:00,75.4,33.9,17.72,ESE,108,8.7,8.7,22,0.00,,---,0.00,VWS V14.01,2013-04-29 19:45:00,
2013-04-29 14:55:00,75.6,34.1,17.72,SE,143,2.7,2.7,22,0.00,,---,0.00,VWS V14.01,2013-04-29 19:55:00,
2013-04-29 15:05:00,76.1,34.5,17.72,SE,136,7.6,7.6,22,0.00,,---,0.00,VWS V14.01,2013-04-29 20:05:00,
2013-04-29 15:10:00,76.3,34.7,17.72,ESE,109,5.8,5.8,22,0.00,,---,0.00,VWS V14.01,2013-04-29 20:10:00,
2013-04-29 15:15:00,76.5,34.8,17.72,SSE,166,8.7,8.7,22,0.00,,---,0.00,VWS V14.01,2013-04-29 20:15:00,
2013-04-29 15:25:00,76.3,34.7,17.72,SSE,150,4.9,4.9,22,0.00,,---,0.00,VWS V14.01,2013-04-29 20:25:00,
2013-04-29 15:30:00,76.5,34.8,17.72,East,100,5.4,5.4,22,0.00,,---,0.00,VWS V14.01,2013-04-29 20:30:00,
2013-04-29 15:40:00,76.8,35.1,17.72,SE,126,5.8,5.8,22,0.00,,---,0.00,VWS V14.01,2013-04-29 20:40:00,
2013-04-29 15:50:00,76.5,34.8,17.72,SSE,147,7.2,7.2,22,0.00,,---,0.00,VWS V14.01,2013-04-29 20:50:00,
2013-04-29 16:00:00,75.9,34.4,17.72,East,99,8.1,8.1,22,0.00,,---,0.00,VWS V14.01,2013-04-29 21:00:00,
2013-04-29 16:05:00,76.5,34.8,17.72,SE,137,5.4,5.4,22,0.00,,---,0.00,VWS V14.01,2013-04-29 21:05:00,
2013-04-29 16:10:00,76.3,34.7,17.72,SSW,210,0.0,0.0,22,0.00,,---,0.00,VWS V14.01,2013-04-29 21:10:00,
2013-04-29 16:15:00,76.3,34.7,17.72,SSE,155,6.3,6.3,22,0.00,,---,0.00,VWS V14.01,2013-04-29 21:15:00,
2013-04-29 16:25:00,76.6,35.0,17.72,ESE,116,6.3,6.3,22,0.00,,---,0.00,VWS V14.01,2013-04-29 21:25:00,
2013-04-29 16:35:00,76.3,34.7,17.72,SE,141,2.2,2.2,22,0.00,,---,0.00,VWS V14.01,2013-04-29 21:35:00,
2013-04-29 16:40:00,75.6,34.1,17.72,South,169,5.8,5.8,22,0.00,,---,0.00,VWS V14.01,2013-04-29 21:40:00,
2013-04-29 16:50:00,75.7,35.3,17.72,SE,129,3.6,3.6,23,0.00,,---,0.00,VWS V14.01,2013-04-29 21:50:00,
2013-04-29 16:55:00,75.7,35.3,17.72,SSE,151,2.2,2.2,23,0.00,,---,0.00,VWS V14.01,2013-04-29 21:55:00,
2013-04-29 17:00:00,75.7,35.3,17.72,SSE,152,8.3,8.3,23,0.00,,---,0.00,VWS V14.01,2013-04-29 22:00:00,
2013-04-29 17:05:00,75.7,35.3,17.72,South,191,3.1,3.1,23,0.00,,---,0.00,VWS V14.01,2013-04-29 22:05:00,
2013-04-29 17:15:00,75.6,36.3,17.72,East,101,3.6,3.6,24,0.00,,---,0.00,VWS V14.01,2013-04-29 22:15:00,
2013-04-29 17:25:00,75.6,36.3,17.72,South,172,8.3,8.3,24,0.00,,---,0.00,VWS V14.01,2013-04-29 22:25:00,
2013-04-29 17:35:00,75.2,36.0,17.72,SE,140,3.6,3.6,24,0.00,,---,0.00,VWS V14.01,2013-04-29 22:35:00,
2013-04-29 17:40:00,74.8,36.7,17.72,SSW,211,5.8,5.8,25,0.00,,---,0.00,VWS V14.01,2013-04-29 22:40:00,
2013-04-29 17:50:00,73.9,36.9,17.72,South,175,5.4,5.4,26,0.00,,---,0.00,VWS V14.01,2013-04-29 22:50:00,
2013-04-29 18:00:00,73.6,36.6,17.72,ESE,123,2.7,2.7,26,0.00,,---,0.00,VWS V14.01,2013-04-29 23:00:00,
2013-04-29 18:10:00,73.6,37.6,17.72,SW,232,5.8,5.8,27,0.00,,---,0.00,VWS V14.01,2013-04-29 23:10:00,
2013-04-29 18:20:00,73.6,38.5,17.72,ESE,123,6.7,6.7,28,0.00,,---,0.00,VWS V14.01,2013-04-29 23:20:00,
2013-04-29 18:25:00,73.2,40.0,17.72,South,179,5.4,5.4,30,0.00,,---,0.00,VWS V14.01,2013-04-29 23:25:00,
2013-04-29 18:35:00,72.7,40.3,17.72,ESE,117,5.8,5.8,31,0.00,,---,0.00,VWS V14.01,2013-04-29 23:35:00,
2013-04-29 18:45:00,72.5,41.0,17.72,SW,225,2.7,2.7,32,0.00,,---,0.00,VWS V14.01,2013-04-29 23:45:00,
2013-04-29 18:55:00,72.7,41.2,17.72,SE,136,0.0,0.0,32,0.00,,---,0.00,VWS V14.01,2013-04-29 23:55:00,
2013-04-29 19:00:00,72.7,41.2,17.72,ESE,109,4.9,4.9,32,0.00,,---,0.00,VWS V14.01,2013-04-30 00:00:00,
2013-04-29 19:10:00,72.3,40.8,17.72,SE,128,4.0,4.0,32,0.00,,---,0.00,VWS V14.01,2013-04-30 00:10:00,
2013-04-29 19:20:00,71.4,40.0,17.72,SE,144,0.0,0.0,32,0.00,,---,0.00,VWS V14.01,2013-04-30 00:20:00,
2013-04-29 19:25:00,71.2,39.9,17.72,SE,139,3.1,3.1,32,0.00,,---,0.00,VWS V14.01,2013-04-30 00:25:00,
2013-04-29 19:35:00,70.9,39.6,17.72,South,171,0.0,0.0,32,0.00,,---,0.00,VWS V14.01,2013-04-30 00:35:00,
2013-04-29 19:45:00,70.5,40.1,17.72,SSE,156,0.0,0.0,33,0.00,,---,0.00,VWS V14.01,2013-04-30 00:45:00,
2013-04-29 19:55:00,70.2,39.7,17.72,SSE,157,0.0,0.0,33,0.00,,---,0.00,VWS V14.01,2013-04-30 00:55:00,
2013-04-29 20:00:00,70.2,39.7,17.72,SSE,156,0.0,0.0,33,0.00,,---,0.00,VWS V14.01,2013-04-30 01:00:00,
2013-04-29 20:10:00,69.8,39.4,17.72,SSE,156,0.0,0.0,33,0.00,,---,0.00,VWS V14.01,2013-04-30 01:10:00,
2013-04-29 20:20:00,69.1,39.6,17.72,SSE,156,0.0,0.0,34,0.00,,---,0.00,VWS V14.01,2013-04-30 01:20:00,
2013-04-29 20:30:00,68.2,38.8,17.72,SSE,156,0.0,0.0,34,0.00,,---,0.00,VWS V14.01,2013-04-30 01:30:00,
2013-04-29 20:40:00,68.0,38.6,17.72,SSE,156,0.0,0.0,34,0.00,,---,0.00,VWS V14.01,2013-04-30 01:40:00,
2013-04-29 20:45:00,67.5,38.9,17.72,SSE,156,0.0,0.0,35,0.00,,---,0.00,VWS V14.01,2013-04-30 01:45:00,
2013-04-29 20:55:00,66.9,39.1,17.72,SSE,156,0.0,0.0,36,0.00,,---,0.00,VWS V14.01,2013-04-30 01:55:00,
2013-04-29 21:00:00,66.6,38.8,17.72,SSE,156,0.0,0.0,36,0.00,,---,0.00,VWS V14.01,2013-04-30 02:00:00,
2013-04-29 21:10:00,66.0,39.7,17.72,SSE,156,0.0,0.0,38,0.00,,---,0.00,VWS V14.01,2013-04-30 02:10:00,
2013-04-29 21:20:00,65.5,39.9,17.72,SSE,156,0.0,0.0,39,0.00,,---,0.00,VWS V14.01,2013-04-30 02:20:00,
2013-04-29 21:30:00,64.9,40.7,17.72,SSE,156,0.0,0.0,41,0.00,,---,0.00,VWS V14.01,2013-04-30 02:30:00,
2013-04-29 21:35:00,64.8,41.2,17.72,SSE,156,0.0,0.0,42,0.00,,---,0.00,VWS V14.01,2013-04-30 02:35:00,
2013-04-29 21:40:00,64.4,42.0,17.72,SSE,156,0.0,0.0,44,0.00,,---,0.00,VWS V14.01,2013-04-30 02:40:00,
2013-04-29 21:50:00,63.9,42.7,17.72,ESE,118,0.0,0.0,46,0.00,,---,0.00,VWS V14.01,2013-04-30 02:50:00,
2013-04-29 21:55:00,63.9,42.7,17.72,ESE,119,0.0,0.0,46,0.00,,---,0.00,VWS V14.01,2013-04-30 02:55:00,
2013-04-29 22:05:00,63.3,42.2,17.72,East,89,0.0,0.0,46,0.00,,---,0.00,VWS V14.01,2013-04-30 03:05:00,
2013-04-29 22:15:00,63.1,42.0,17.72,East,89,0.0,0.0,46,0.00,,---,0.00,VWS V14.01,2013-04-30 03:15:00,
2013-04-29 22:20:00,63.0,42.4,17.72,East,89,0.0,0.0,47,0.00,,---,0.00,VWS V14.01,2013-04-30 03:20:00,
2013-04-29 22:30:00,62.6,42.1,17.72,East,89,0.0,0.0,47,0.00,,---,0.00,VWS V14.01,2013-04-30 03:30:00,
2013-04-29 22:35:00,62.4,42.5,17.72,East,88,0.0,0.0,48,0.00,,---,0.00,VWS V14.01,2013-04-30 03:35:00,
2013-04-29 22:40:00,62.2,42.9,17.72,East,89,0.0,0.0,49,0.00,,---,0.00,VWS V14.01,2013-04-30 03:40:00,
2013-04-29 22:50:00,62.2,43.4,17.72,East,89,0.0,0.0,50,0.00,,---,0.00,VWS V14.01,2013-04-30 03:50:00,
2013-04-29 22:55:00,62.2,43.9,17.72,East,89,0.0,0.0,51,0.00,,---,0.00,VWS V14.01,2013-04-30 03:55:00,
2013-04-29 23:05:00,62.1,44.8,17.72,East,89,0.0,0.0,53,0.00,,---,0.00,VWS V14.01,2013-04-30 04:05:00,
2013-04-29 23:10:00,62.1,45.2,17.72,East,89,0.0,0.0,54,0.00,,---,0.00,VWS V14.01,2013-04-30 04:10:00,
2013-04-29 23:15:00,62.1,46.2,17.72,East,89,0.0,0.0,56,0.00,,---,0.00,VWS V14.01,2013-04-30 04:15:00,
2013-04-29 23:20:00,62.1,46.2,17.72,East,88,0.0,0.0,56,0.00,,---,0.00,VWS V14.01,2013-04-30 04:20:00,
2013-04-29 23:25:00,62.1,46.7,17.72,East,89,0.0,0.0,57,0.00,,---,0.00,VWS V14.01,2013-04-30 04:25:00,
2013-04-29 23:30:00,62.1,47.6,17.72,East,88,0.0,0.0,59,0.00,,---,0.00,VWS V14.01,2013-04-30 04:30:00,
2013-04-29 23:40:00,61.9,48.7,17.72,ESE,120,0.0,0.0,62,0.00,,---,0.00,VWS V14.01,2013-04-30 04:40:00,
2013-04-29 23:50:00,62.2,49.9,17.72,ESE,118,3.6,3.6,64,0.00,,---,0.00,VWS V14.01,2013-04-30 04:50:00,